Location: Quedlinburg
(51.7921°N, 11.1414°E)
Time: 21:10:56
(UTC+02:00)

CUBESAT XI-V - Pass Details

Date: 18 March 2026
Orbit: 643 x 664 km, 98.3° (Epoch: 14 April)

Event Time Altitude Azimuth Distance (km) Brightness Sun altitude
Exits shadow 03:04:43 36° 356° (N) 1,038 ? -29.0°
Drops below altitude 10° 03:07:25 10° 348° (NNW) 2,067 ? -28.7°
Sets 03:09:38 0° 347° (NNW) 2,979 ? -28.5°
